Regional Weather Roundup
Issued by NWS

Home | Current Version | Previous Version | Graphics & Text | Print | Product List | Glossary On
Versions: 1 2 3 4 5 6 7 8 9 10 11 12 13 14 15 16 17 18 19 20 21 22 23 24 25 26 27 28 29 30 31 32 33 34 35 36 37 38 39 40 41 42 43 44 45 46 47 48 49 50
000
ASUS43 KDTX 070010
RWRMI
MICHIGAN HOURLY REGIONAL WEATHER ROUNDUP
NATIONAL WEATHER SERVICE DETROIT/PONTIAC MI
800 PM EDT MON JUL 06 2015

NOTE: "FAIR" INDICATES FEW OR NO CLOUDS BELOW 12,000 FEET WITH NO
SIGNIFICANT WEATHER AND/OR OBSTRUCTION TO VISIBILITY.

MIZ047>049-052>055-059>063-066>070-074>076-081>083-070100-
SOUTHEAST LOWER MICHIGAN

CITY           SKY/WX    TMP DP  RH WIND       PRES   REMARKS
ADRIAN         MOSUNNY   79  66  64 S6        29.96S
6HR MIN TEMP:  79; 6HR MAX TEMP:  84;

ALMA           MOSUNNY   80  66  61 S9        29.89S
ANN ARBOR      SUNNY     78  64  61 S7        29.95S
BAD AXE        SUNNY     77  61  56 S7        29.91F
CARO           MOSUNNY   79  64  60 S6        29.90F
DETROIT CITY   MOSUNNY   79  61  53 S8        29.95F
6HR MIN TEMP:  79; 6HR MAX TEMP:  84;

DETROIT        PTSUNNY   80  63  55 SE7       29.95F
6HR MIN TEMP:  80; 6HR MAX TEMP:  85;

FLINT          MOSUNNY   82  63  52 S9        29.92F
6HR MIN TEMP:  82; 6HR MAX TEMP:  86;

GROSSE ILE     SUNNY     75  66  73 SE9       29.94F
HILLSDALE      MOSUNNY   81  66  60 S3        29.96F
6HR MIN TEMP:  81; 6HR MAX TEMP:  84;

HOWELL         MOSUNNY   79  63  58 S6        29.94S
6HR MIN TEMP:  79; 6HR MAX TEMP:  83;


CITY           SKY/WX    TMP DP  RH WIND       PRES   REMARKS
JACKSON        MOSUNNY   79  66  64 S8        29.94F
6HR MIN TEMP:  79; 6HR MAX TEMP:  83;

LAMBERTVILLE   SUNNY     82  61  48 S5        29.96S
6HR MIN TEMP:  82; 6HR MAX TEMP:  85;

LANSING        MOSUNNY   80  65  59 S12       29.90F HAZE
6HR MIN TEMP:  80; 6HR MAX TEMP:  83;

LAPEER         FAIR      79  59  50 S6        29.94S
MASON          MOSUNNY   77  66  69 S5        29.93S
MONROE         SUNNY     78  65  64 SE3       29.94F
MT. CLEMENS    PTSUNNY   76  65  66 S9        29.92F
6HR MIN TEMP:  76; 6HR MAX TEMP:  82;

PONTIAC        PTSUNNY   80  60  50 S9        29.94S
6HR MIN TEMP:  80; 6HR MAX TEMP:  84;

PORT HOPE        N/A     79  64  60 SE6       29.89F
6HR MIN TEMP:  69; 6HR MAX TEMP:  81;

PORT HURON     MOSUNNY   75  61  60 S6        29.95S
TRI CITIES     MOSUNNY   82  64  54 S14       29.89S
6HR MIN TEMP:  82; 6HR MAX TEMP:  86;

MIDLAND        FAIR      81  64  55 S9        29.87S
TROY           MOSUNNY   82  61  47 SW9       29.96S
SAGINAW HB     MOSUNNY   81  61  50 S12       29.89S
$$
MIZ043>046-050>051-056>058-064>065-071>073-077>080-070100-
SOUTHWEST LOWER MICHIGAN

CITY           SKY/WX    TMP DP  RH WIND       PRES   REMARKS
BATTLE CREEK   PTSUNNY   81  65  58 S10       29.92F
6HR MIN TEMP:  81; 6HR MAX TEMP:  85;

BENTON HARBOR  CLOUDY    82  69  64 S8        29.87F
6HR MIN TEMP:  82; 6HR MAX TEMP:  86;

BIG RAPIDS     CLOUDY    79  62  55 S6        29.86S
6HR MIN TEMP:  79; 6HR MAX TEMP:  82;

COLDWATER      PTSUNNY   79  64  60 S5        29.93F
6HR MIN TEMP:  79; 6HR MAX TEMP:  82;

FREMONT        FAIR      80  64  56 S5        29.85S HAZE
HOLLAND        CLOUDY    82  68  62 S9        29.86F
6HR MIN TEMP:  82; 6HR MAX TEMP:  87;

GRAND RAPIDS   CLOUDY    81  66  60 S10       29.88S HAZE
6HR MIN TEMP:  81; 6HR MAX TEMP:  85;

IONIA          FAIR      81  66  59 S9        29.89R
KALAMAZOO      PTSUNNY   81  66  60 S12       29.91F
6HR MIN TEMP:  80; 6HR MAX TEMP:  85;

LUDINGTON      CLOUDY    79  67  67 S18       29.82S
6HR MIN TEMP:  79; 6HR MAX TEMP:  82;

MARSHALL       PTSUNNY   79  66  64 S6        29.92F
MOUNT PLEASANT MOSUNNY   80  64  58 SE8       29.86F
6HR MIN TEMP:  80; 6HR MAX TEMP:  84;

MUSKEGON       PTSUNNY   82  67  60 S14       29.85S
6HR MIN TEMP:  81; 6HR MAX TEMP:  86;

SOUTH HAVEN    CLOUDY    82  68  62 S8        29.87F
$$
MIZ016>042-070100-
NORTHERN LOWER MICHIGAN

CITY           SKY/WX    TMP DP  RH WIND       PRES   REMARKS
ALPENA         SUNNY     81  63  54 S13       29.84F
6HR MIN TEMP:  81; 6HR MAX TEMP:  87;

BEAVER ISLAND  HVY RAIN  64  62  95 SW13      29.81F
6HR MIN TEMP:  62; 6HR MAX TEMP:  80;

BELLAIRE       PTSUNNY   82  63  52 S8        29.80R
6HR MIN TEMP:  82; 6HR MAX TEMP:  86;

CADILLAC       CLOUDY    78  65  62 S7        29.85F
CHARLEVOIX     CLOUDY    81  63  53 S7        29.82R
FRANKFORT      CLOUDY    81  63  53 S9        29.80S
GAYLORD        PTSUNNY   79  62  56 S16       29.84S HAZE
6HR MIN TEMP:  79; 6HR MAX TEMP:  84;

GRAYLING       MOSUNNY   78  64  61 S7        29.86R
6HR MIN TEMP:  78; 6HR MAX TEMP:  83;

HARBOR SPRINGS PTSUNNY   80  65  59 S6        29.79R
HOUGHTON LAKE  MOSUNNY   78  64  61 S10G20    29.86F
6HR MIN TEMP:  78; 6HR MAX TEMP:  83;

MANISTEE       CLOUDY   N/A N/A N/A S14G20    29.81F
OSCODA         SUNNY     81  62  53 S9        29.86S
PELLSTON       PTSUNNY   81  64  56 S8        29.79S
6HR MIN TEMP:  81; 6HR MAX TEMP:  85;

ROGERS CITY    MOSUNNY   80  65  59 S7        29.81F
TRAVERSE CITY  CLOUDY    82  64  54 S7        29.78S
6HR MIN TEMP:  82; 6HR MAX TEMP:  86;

$$
MIZ007>008-015-070100-
EASTERN UPPER MICHIGAN

CITY           SKY/WX    TMP DP  RH WIND       PRES   REMARKS
KINROSS        CLOUDY    77  64  65 SE10      29.77F
6HR MIN TEMP:  77; 6HR MAX TEMP:  81;

MACKINAC ISLAN CLOUDY    76  63  64 S7        29.77F
6HR MIN TEMP:  73; 6HR MAX TEMP:  80;

NEWBERRY       LGT RAIN  66  66  98 S16G25    29.79F
S. S. MARIE    CLOUDY    74  64  71 VRB7      29.77F
6HR MIN TEMP:  74; 6HR MAX TEMP:  81;

MUNISING         N/A     54  51  90 NW17      29.84S
6HR MIN TEMP:  53; 6HR MAX TEMP:  77; 6HR PCP:  0.34;

$$
MIZ004>006-011>014-085-070100-
CENTRAL UPPER MICHIGAN

CITY           SKY/WX    TMP DP  RH WIND       PRES   REMARKS
MANISTIQUE     RAIN      63  62  97 W6        29.79R VSB 1
ESCANABA       CLOUDY    59  57  94 N10G21    29.81R
6HR MIN TEMP:  59; 6HR MAX TEMP:  70; 6HR PCP:  0.12;

MENOMINEE      CLOUDY    70  64  83 S6        29.75S
6HR MIN TEMP:  70; 6HR MAX TEMP:  75; 6HR PCP:  0.05;

SAWYER-GWINN   RAIN      55  54  94 N14       29.86R
$$
MIZ001>003-009>011-084-070100-
WESTERN UPPER MICHIGAN

CITY           SKY/WX    TMP DP  RH WIND       PRES   REMARKS
IRON MOUNTAIN  RAIN      59  57  93 N14       29.84R FOG
6HR MIN TEMP:  59; 6HR MAX TEMP:  72;

HOUGHTON       CLOUDY    57  55  93 NW8       29.88R FOG
6HR MIN TEMP:  57; 6HR MAX TEMP:  59; 6HR PCP:  0.37;

COPPER HARBOR    N/A     51  50  96 N14       29.86R
6HR MIN TEMP:  48; 6HR MAX TEMP:  55; 6HR PCP:  0.44;

IRONWOOD       PTSUNNY   57  55  94 NW6       29.90S VSB 1
6HR MIN TEMP:  55; 6HR MAX TEMP:  57;

$$

ABBREVIATIONS USED IN REMARKS
   TC - TEMPERATURE IN CELSIUS
  WCI - WIND CHILL INDEX
   HX - HEAT INDEX
  VSB - VISIBILITY




USA.gov is the U.S. government's official web portal to all federal, state and local government web resources and services.